Weather History for Pierre, SD

Change the Weather History Date:

Thursday, October 10, 2013

  Actual Average Record
Temperature  
Mean Temperature 57 °F 51 °F  
Max Temperature 69 °F 64 °F 93 °F (1955)
Min Temperature 44 °F 39 °F 19 °F (1987)
Degree Days  
Heating Degree Days 8 14  
Month to date heating degree days 117 120  
Since 1 July heating degree days 182 291  
Cooling Degree Days 0 0  
Month to date cooling degree days 0 2  
Year to date cooling degree days 853 865  
Growing Degree Days 6 (Base 50)    
Moisture  
Dew Point 48 °F    
Average Humidity 71    
Maximum Humidity 92    
Minimum Humidity 49    
Precipitation  
Precipitation T in 0.05 in 1.78 in (1949)
Month to date precipitation 2.43 0.64  
Year to date precipitation 20.51 17.69  
Snow  
Snow 0.00 in 0.00 in 0.90 in (1977)
Month to date snowfall T 0.1  
Since 1 July snowfall T 0.1  
Snow Depth 0.00 in    
Sea Level Pressure  
Sea Level Pressure 29.71 in    
Wind  
Wind Speed 5 mph (ENE)    
Max Wind Speed 15 mph    
Max Gust Speed 18 mph    
Visibility 10 miles    
Events Thunderstorm    
T = Trace of Precipitation, MM = Missing Value Source: NWS Daily Summary

Daily Weather History Graph

Daily Weather History Graph

Search for Another Location

Airport:

Trip Planner

Search our weather history database for the weather conditions in past years. The results will help you decide how hot, cold, wet, or windy it might be!

Date:

Astronomy

Oct. 10, 2013 Rise Set
Actual Time 7:50 AM CDT 7:05 PM CDT
Civil Twilight 7:21 AM CDT 7:34 PM CDT
Nautical Twilight 6:47 AM CDT 8:07 PM CDT
Astronomical Twilight 6:13 AM CDT 8:41 PM CDT
Moon 1:52 PM CDT (10/10) 11:36 PM CDT (10/10)
Length of Visible Light 12h 13m
Length of Day
11h 14m
Waxing Crescent, 36% of the Moon is Illuminated
Oct 10
Waxing Crescent
Oct 11
First Quarter
Oct 18
Full
Oct 26
Last Quarter
Nov 3
New

Hourly Weather History & Observations

Time (CDT) Temp. Windchill Dew Point Humidity Pressure Visibility Wind Dir Wind Speed Gust Speed Precip Events Conditions
12:53 AM 51.1 °F - 43.0 °F 74% 29.87 in 10.0 mi NE 6.9 mph - N/A   Clear
1:53 AM 50.0 °F - 43.0 °F 77% 29.86 in 10.0 mi Calm Calm - N/A   Clear
2:53 AM 48.0 °F - 43.0 °F 83% 29.85 in 10.0 mi NNW 4.6 mph - N/A   Clear
3:53 AM 46.9 °F - 43.0 °F 86% 29.84 in 10.0 mi NNW 5.8 mph - N/A   Clear
4:53 AM 46.9 °F - 42.1 °F 83% 29.83 in 10.0 mi NNW 6.9 mph - N/A   Clear
5:53 AM 45.0 °F - 41.0 °F 86% 29.83 in 10.0 mi Calm Calm - N/A   Clear
6:53 AM 45.0 °F 41.2 °F 42.1 °F 90% 29.83 in 10.0 mi NW 6.9 mph - N/A   Clear
7:53 AM 44.1 °F 40.8 °F 39.9 °F 85% 29.82 in 10.0 mi North 5.8 mph - N/A   Clear
8:53 AM 48.0 °F - 43.0 °F 83% 29.82 in 10.0 mi Calm Calm - N/A   Clear
9:53 AM 52.0 °F - 44.1 °F 74% 29.80 in 10.0 mi Calm Calm - N/A   Clear
10:53 AM 55.0 °F - 45.0 °F 69% 29.79 in 10.0 mi NW 4.6 mph - N/A   Clear
11:53 AM 59.0 °F - 46.9 °F 64% 29.76 in 10.0 mi Calm Calm - N/A   Clear
12:53 PM 64.9 °F - 48.0 °F 54% 29.74 in 10.0 mi Calm Calm - N/A   Clear
1:53 PM 66.9 °F - 48.9 °F 52% 29.70 in 10.0 mi Calm Calm - N/A   Clear
2:53 PM 68.0 °F - 48.9 °F 50% 29.69 in 10.0 mi SE 12.7 mph - N/A   Clear
3:53 PM 66.9 °F - 51.1 °F 57% 29.67 in 10.0 mi SE 8.1 mph - N/A   Clear
4:53 PM 66.9 °F - 51.1 °F 57% 29.63 in 10.0 mi SE 10.4 mph - N/A   Clear
5:53 PM 66.0 °F - 53.1 °F 63% 29.62 in 10.0 mi East 6.9 mph - N/A   Clear
6:53 PM 64.0 °F - 53.1 °F 67% 29.62 in 10.0 mi East 4.6 mph - N/A   Clear
7:53 PM 62.1 °F - 53.1 °F 72% 29.58 in 10.0 mi NE 4.6 mph - N/A   Clear
8:53 PM 64.0 °F - 54.0 °F 70% 29.58 in 10.0 mi ESE 5.8 mph - 0.00 in   Partly Cloudy
9:29 PM 64.4 °F - 55.4 °F 73% 29.55 in 10.0 mi East 8.1 mph - 0.00 in Thunderstorm Mostly Cloudy
9:53 PM 64.0 °F - 55.0 °F 73% 29.53 in 10.0 mi East 3.5 mph - 0.00 in   Scattered Clouds
10:53 PM 63.0 °F - 55.9 °F 78% 29.52 in 10.0 mi East 4.6 mph - 0.00 in   Clear
11:53 PM 64.0 °F - 55.9 °F 75% 29.51 in 10.0 mi ESE 10.4 mph - N/A   Clear